Weather Service Report


590 
ASUS45 KREV 232010
RWRNV 
NEVADA REGIONAL WEATHER ROUNDUP
NATIONAL WEATHER SERVICE RENO NV
1200 PM PST SUN FEB 23 2020

NOTE: "FAIR" INDICATES FEW OR NO CLOUDS BELOW 12,000 FEET WITH NO
SIGNIFICANT WEATHER AND/OR OBSTRUCTIONS TO VISIBILITY.

NVZ001-003-004-232100-
WESTERN NEVADA
  
CITY           SKY/WX    TMP DP  RH WIND       PRES   REMARKS
RENO           PTSUNNY   61  19  19 CALM      30.24F                  
CARSON CITY    FAIR      59  18  20 VRB7      30.23F                  
MINDEN         FAIR      59  19  21 W17G25    30.25F                  
SLIDE MTN        N/A     36  25  64 W6          N/A                   
FALLON         MOSUNNY   61  22  22 VRB7      30.21F                  
LOVELOCK       MOSUNNY   57  22  25 SW8       30.22S                  
$$

NVZ002-CAZ072-073-232100-
NORTHERN AND CENTRAL SIERRA
  
CITY           SKY/WX    TMP DP  RH WIND       PRES   REMARKS
S. LAKE TAHOE  SUNNY     51  19  28 SW7       30.30S                  
TRUCKEE        SUNNY     54  23  30 W9G17     30.31R                  
SQUAW VLY 8000   N/A     37  23  56 W8          N/A                   
BLUE CANYON    MOSUNNY   47  30  51 S6        30.35R                  
MAMMOTH LAKES  FAIR      54  10  17 CALM      30.29F                  
BRIDGEPORT       N/A     54  14  20 E2          N/A                   
$$

NVZ030-031-036-232100-
NORTHERN NEVADA
  
CITY           SKY/WX    TMP DP  RH WIND       PRES   REMARKS
ELKO           SUNNY     53  21  28 W14G21    30.16F                  
WINNEMUCCA     PTSUNNY   59  18  20 W14       30.18S                  
BATTLE MOUNTAI CLEAR     59  19  21 SW16      30.17F                  
WENDOVER       SUNNY     47  18  31 SE7       30.13F                  
$$

NVZ035-037-232100-
CENTRAL NEVADA
  
CITY           SKY/WX    TMP DP  RH WIND       PRES   REMARKS
ELY            SUNNY     50  10  20 MISG      30.19S                  
EUREKA           N/A     51  16  24 VRB6      30.19F                  
$$

NVZ013-014-232100-
SOUTH CENTRAL NEVADA
  
CITY           SKY/WX    TMP DP  RH WIND       PRES   REMARKS
TONOPAH        SUNNY     53  26  35 NW20G28   30.22F                  
$$

NVZ017-020-022-232100-
SOUTHERN NEVADA
  
CITY           SKY/WX    TMP DP  RH WIND       PRES   REMARKS
LAS VEGAS      MOSUNNY   62  42  47 VRB3      30.15F                  
N. LAS VEGAS   SUNNY     60  42  51 S6        30.15F                  
NELLIS AFB     SUNNY     59  45  60 E5        30.15F                  
HENDERSON      SUNNY     63  40  42 N5        30.18F                  
MERCURY        SUNNY     58  41  53 NE3       30.18F                  
$$
  

Return to Home page


Western Regional Climate Center, wrcc@dri.edu